Flag for Germany Weather past 2 weeks in Öhringen, Baden-Württemberg, Germany

Now
46 °F

Clear.


Feels Like: 46 °F
Forecast: 48 / 74 °F
Wind: 1 mph from Northeast

Location: Oehringen


UV Index: 3 (Moderate)

Visibility: 8 mi


Pressure: 30.10 "Hg

Humidity: 87%

Dew point: 43 °F

Location of ÖhringenLocation

Historic Weather in Öhringen

°F

Öhringen temperature yesterday

Maximum temperature yesterday: 71 °F (at 5:00 PM)
Minimum temperature yesterday: 44 °F (at 5:00 AM)
Average temperature yesterday: 58 °F

Past Weeks' High & Low Weather Summary

 TemperatureHumidityPressure
High71 °F (Apr 23, 5:00 PM)98% (Apr 19, 4:00 AM)30.42 "Hg (Apr 19, 4:00 AM)
Low32 °F (Apr 16, 7:00 AM)24% (Apr 17, 4:00 PM)29.61 "Hg (Apr 21, 2:00 PM)
Average51 °F66%30.04 "Hg
* Reported Apr 9 5:00 AM — Apr 24 5:00 AM, Öhringen, Weather by CustomWeather, © 2014

Note: Actual official high and low records may vary slightly from our data, if they occured in-between our weather recording intervals... More about our weather records

Advertising

Historic Weather Conditions — Data for Previous 24 hours

 ConditionsComfort  
Time TempWeatherWind HumidityBarometerVisibility
5:00 AM
Apr 24
48 °FClear.1 mph86%30.10 "Hg9 mi
4:00 AM48 °FClear.1 mph87%30.11 "Hg8 mi
3:00 AM50 °FClear.1 mph81%30.10 "Hg11 mi
2:00 AM50 °FPassing clouds.1 mph85%30.11 "Hg11 mi
1:00 AM51 °FPassing clouds.1 mph83%30.11 "Hg13 mi
12:00 AM52 °FPassing clouds.1 mph80%30.10 "Hg16 mi
11:00 PM
Apr 23
54 °FClear.1 mph77%30.10 "Hg19 mi
10:00 PM57 °FClear.1 mph69%30.09 "Hg19 mi
9:00 PM63 °FClear.No wind55%30.06 "Hg28 mi
8:00 PM68 °FPassing clouds.1 mph44%30.03 "Hg25 mi
7:00 PM69 °FScattered clouds.1 mph42%30.03 "Hg31 mi
6:00 PM70 °FOvercast.2 mph38%30.02 "Hg37 mi
5:00 PM71 °FPassing clouds.1 mph36%30.03 "Hg43 mi
4:00 PM70 °FScattered clouds.2 mph34%30.04 "Hg43 mi
3:00 PM70 °FSunny.2 mph34%30.06 "Hg22 mi
2:00 PM70 °FSunny.2 mph35%30.06 "Hg19 mi
1:00 PM67 °FSunny.2 mph44%30.08 "Hg37 mi
12:00 PM67 °FSunny.1 mph46%30.09 "Hg25 mi
11:00 AM65 °FScattered clouds.2 mph51%30.09 "Hg22 mi
10:00 AM60 °FSunny.1 mph62%30.10 "Hg15 mi
9:00 AM53 °FSunny.1 mph72%30.11 "Hg12 mi
8:00 AM47 °FSunny.1 mph84%30.12 "Hg7 mi
7:00 AM44 °FSunny.1 mph90%30.11 "Hg6 mi
6:00 AM44 °FClear.1 mph91%30.10 "Hg8 mi
Weather by CustomWeather, © 2014

See weather overview